Time,TemperatureF,DewpointF,PressureIn,WindDirection,WindDirectionDegrees,WindSpeedMPH,WindSpeedGustMPH,Humidity,HourlyPrecipIn,Conditions,Clouds,dailyrainin,SolarRadiationWatts/m^2,SoftwareType,DateUTC
2013-04-22 00:11:00,45.0,40.0,-100.00,SE,128,3.0,5.0,81,-99.99,,,0.00,0.000000,,2013-04-22 07:11:00,
2013-04-22 01:11:00,42.0,38.0,-100.00,ESE,112,2.0,5.0,88,-99.99,,,0.00,0.000000,,2013-04-22 08:11:00,
2013-04-22 02:11:00,39.0,37.0,-100.00,SE,144,1.0,2.0,92,-99.99,,,0.00,0.000000,,2013-04-22 09:11:00,
2013-04-22 03:12:00,39.0,38.0,-100.00,NW,325,1.0,2.0,94,-99.99,,,0.00,0.000000,,2013-04-22 10:12:00,
2013-04-22 04:12:00,38.0,37.0,-100.00,SE,139,1.0,2.0,95,-99.99,,,0.00,0.000000,,2013-04-22 11:12:00,
2013-04-22 05:12:00,36.0,35.0,-100.00,SSE,161,1.0,3.0,96,-99.99,,,0.00,0.000000,,2013-04-22 12:12:00,
2013-04-22 06:11:00,34.0,33.0,-100.00,South,190,1.0,3.0,97,-99.99,,,0.00,0.000000,,2013-04-22 13:11:00,
2013-04-22 07:11:00,33.0,32.0,-100.00,South,189,1.0,3.0,97,-99.99,,,0.00,5.460000,,2013-04-22 14:11:00,
2013-04-22 08:11:00,35.0,34.0,-100.00,SSE,163,1.0,2.0,97,-99.99,,,-99.99,48.580002,,2013-04-22 15:11:00,
2013-04-22 09:12:00,42.0,40.0,-100.00,WSW,238,1.0,2.0,93,-99.99,,,0.00,292.760010,,2013-04-22 16:12:00,
2013-04-22 10:12:00,47.0,39.0,-100.00,ENE,68,1.0,3.0,73,-99.99,,,0.00,440.470001,,2013-04-22 17:12:00,
2013-04-22 12:12:00,55.0,26.0,-100.00,ENE,65,6.0,15.0,31,-99.99,,,0.00,782.859985,,2013-04-22 19:12:00,
2013-04-22 13:11:00,57.0,28.0,-100.00,East,99,5.0,13.0,32,-99.99,,,0.00,863.510010,,2013-04-22 20:11:00,
2013-04-22 14:11:00,58.0,28.0,-100.00,ESE,117,5.0,11.0,30,-99.99,,,0.00,890.250000,,2013-04-22 21:11:00,
2013-04-22 15:12:00,59.0,26.0,-100.00,SE,124,6.0,13.0,28,-99.99,,,0.00,858.869995,,2013-04-22 22:12:00,
2013-04-22 16:11:00,60.0,27.0,-100.00,East,86,4.0,11.0,28,-99.99,,,0.00,774.840027,,2013-04-22 23:11:00,
2013-04-22 18:11:00,61.0,26.0,-100.00,South,175,4.0,13.0,25,-99.99,,,0.00,475.220001,,2013-04-23 01:11:00,
2013-04-22 19:12:00,60.0,25.0,-100.00,South,169,4.0,11.0,25,-99.99,,,0.00,292.179993,,2013-04-23 02:12:00,
2013-04-22 20:11:00,59.0,23.0,-100.00,SE,130,2.0,7.0,24,-99.99,,,0.00,112.730003,,2013-04-23 03:11:00,
2013-04-22 21:12:00,54.0,25.0,-100.00,ESE,106,1.0,3.0,32,-99.99,,,0.00,2.560000,,2013-04-23 04:12:00,
2013-04-22 22:12:00,46.0,29.0,-100.00,SW,230,0.0,2.0,52,-99.99,,,0.00,0.000000,,2013-04-23 05:12:00,
2013-04-22 23:12:00,40.0,31.0,-100.00,WNW,286,2.0,6.0,68,-99.99,,,0.00,0.000000,,2013-04-23 06:12:00,